User: anonymous   Login
Location: Unspecified
(0.0000°N, 0.0000°E)
Time: 01:08:02
(UTC+00:00)
Language:

APRIZESAT 2 (LATINSAT D) - Orbit

View from above orbital plane
View from above orbital plane
View from above satellite
View from above satellite

Ground track
Ground track

The orbit data is extracted from the following two-line orbital elements,

1 28366U 04025A   18352.72063443 -.00000018  00000-0  85094-5 0  9995
2 28366  98.3144 253.7824 0107128 204.9005 154.6991 14.36660400758494
Epoch (UTC): 18 December 2018 17:17:42
Eccentricity: 0.0107128
inclination: 98.3144°
perigee height: 693 km
apogee height: 846 km
right ascension of ascending node: 253.7824°
argument of perigee: 204.9005°
revolutions per day: 14.36660400
mean anomaly at epoch: 154.6991°
orbit number at epoch: 75849

The dashed part of the orbit path shows where the satellite is in the earth's shadow,  

DLR